Suceava, Romania

10:51 AM EET on January 23, 2018 (GMT +0200)
Salcea

Weather History for LRSV - January, 2014

Change the Weather History Date:

Tuesday, January 28, 2014

  Actual Average Record
Temperature  
Mean Temperature 14 °F -  
Max Temperature 17 °F - - ()
Min Temperature 12 °F - - ()
Degree Days  
Heating Degree Days 50    
Moisture  
Dew Point 14 °F    
Average Humidity 95    
Maximum Humidity 100    
Minimum Humidity 93    
Precipitation  
Precipitation 0.00 in - - ()
Sea Level Pressure  
Sea Level Pressure 29.74 in    
Wind  
Wind Speed 8 mph ()    
Max Wind Speed 12 mph    
Max Gust Speed -    
Visibility 5.0 miles    
Events Snow    
T = Trace of Precipitation, MM = Missing Value Source: Averaged Metar Reports

Daily Weather History Graph

Daily Weather History Graph

Search for Another Location

Airport or City:

Trip Planner

Search our weather history database for the weather conditions in past years. The results will help you decide how hot, cold, wet, or windy it might be!

Date:

Astronomy

Jan. 28, 2014 Rise Set
Actual Time 7:46 AM EET 5:09 PM EET
Civil Twilight 7:13 AM EET 5:42 PM EET
Nautical Twilight 6:36 AM EET 6:20 PM EET
Astronomical Twilight 5:59 AM EET 6:56 PM EET
Moon 5:12 AM EET (1/28) 2:35 PM EET (1/28)
Length of Visible Light 10h 29m
Length of Day
9h 22m
Waning Crescent, 9% of the Moon is Illuminated
Jan 28
Waning Crescent
Jan 30
New
Feb 6
First Quarter
Feb 15
Full
Feb 22
Last Quarter

Hourly Weather History & Observations

Time (EET) Temp. Windchill Dew Point Humidity Pressure Visibility Wind Dir Wind Speed Gust Speed Precip Events Conditions
12:00 AM 14.0 °F 0.5 °F 12.2 °F 93% 29.71 in - NNE 11.5 mph - N/A Snow Light Snow
1:00 AM 14.0 °F 2.0 °F 12.2 °F 93% 29.71 in 4.3 mi North 9.2 mph - N/A Snow Light Snow
2:00 AM 14.0 °F 2.0 °F 12.2 °F 93% 29.71 in 1.9 mi North 9.2 mph - N/A Snow Light Snow
3:00 AM 14.0 °F 2.0 °F 12.2 °F 93% 29.71 in - North 9.2 mph - N/A Snow Light Snow
4:00 AM 14.0 °F 2.0 °F 12.2 °F 93% 29.71 in 6.2 mi North 9.2 mph - N/A Snow Snow Grains
4:30 AM 14.0 °F 2.0 °F 12.2 °F 93% 29.71 in 5.0 mi North 9.2 mph - N/A Snow Light Snow
5:00 AM 12.2 °F 1.7 °F 12.2 °F 100% 29.71 in 5.6 mi North 6.9 mph - N/A Snow Light Snow
5:30 AM - - - N/A% 0.00 in 3.7 mi North 6.9 mph - N/A   Unknown
6:00 AM 14.0 °F 2.0 °F 12.2 °F 93% 29.71 in 5.0 mi North 9.2 mph - N/A Snow Light Snow
6:30 AM 12.2 °F -0.2 °F 12.2 °F 100% 29.71 in 5.0 mi North 9.2 mph - N/A Snow Light Snow
7:00 AM 12.2 °F -0.2 °F 12.2 °F 100% 29.71 in 4.3 mi North 9.2 mph - N/A Snow Light Snow
7:30 AM 14.0 °F 2.0 °F 12.2 °F 93% 29.71 in 5.0 mi North 9.2 mph - N/A Snow Light Snow
8:00 AM 14.0 °F 2.0 °F 12.2 °F 93% 29.68 in 6.2 mi North 9.2 mph - N/A Snow Light Snow
8:30 AM 14.0 °F 3.9 °F 12.2 °F 93% 29.71 in 6.2 mi North 6.9 mph - N/A Snow Light Snow
9:00 AM 14.0 °F 2.0 °F 12.2 °F 93% 29.71 in 6.2 mi North 9.2 mph - N/A Snow Light Snow
9:30 AM 14.0 °F 3.9 °F 12.2 °F 93% 29.71 in 2.5 mi North 6.9 mph - N/A Snow Snow
10:00 AM 14.0 °F 3.9 °F 12.2 °F 93% 29.71 in 4.3 mi North 6.9 mph - N/A Snow Light Snow
10:30 AM 14.0 °F 3.9 °F 12.2 °F 93% 29.71 in 1.9 mi NNW 6.9 mph - N/A Snow Snow
11:00 AM 14.0 °F 3.9 °F 12.2 °F 93% 29.74 in 2.5 mi NNW 6.9 mph - N/A Snow Snow
11:30 AM 14.0 °F 6.5 °F 14.0 °F 100% 29.74 in 5.6 mi NNW 4.6 mph - N/A Snow Light Snow
12:00 PM 15.8 °F 6.1 °F 14.0 °F 93% 29.74 in 6.2 mi NNW 6.9 mph - N/A Snow Light Snow
12:30 PM 15.8 °F 6.1 °F 14.0 °F 93% 29.74 in 6.2 mi North 6.9 mph - N/A Snow Light Snow
1:00 PM 15.8 °F 6.1 °F 15.8 °F 100% 29.74 in 6.2 mi North 6.9 mph - N/A Snow Light Snow
1:30 PM 15.8 °F 6.1 °F 15.8 °F 100% 29.74 in 6.2 mi North 6.9 mph - N/A Snow Light Snow
2:00 PM 15.8 °F 6.1 °F 14.0 °F 93% 29.74 in 6.2 mi NNW 6.9 mph - N/A Snow Light Snow
2:30 PM 15.8 °F 4.2 °F 15.8 °F 100% 29.74 in 6.2 mi North 9.2 mph - N/A   Mostly Cloudy
3:00 PM 17.6 °F 6.4 °F 15.8 °F 93% 29.74 in 6.2 mi North 9.2 mph - N/A Snow Light Snow
3:30 PM 17.6 °F 8.2 °F 15.8 °F 93% 29.74 in 3.7 mi North 6.9 mph - N/A Snow Light Snow
4:00 PM 17.6 °F 8.2 °F 15.8 °F 93% 29.74 in 6.2 mi North 6.9 mph - N/A Snow Light Snow
4:30 PM 15.8 °F 6.1 °F 15.8 °F 100% 29.74 in 6.2 mi North 6.9 mph - N/A   Scattered Clouds
5:00 PM 15.8 °F 4.2 °F 15.8 °F 100% 29.77 in 6.2 mi North 9.2 mph - N/A   Partly Cloudy
5:30 PM 15.8 °F 4.2 °F 15.8 °F 100% 29.74 in 6.2 mi North 9.2 mph - N/A   Mostly Cloudy
6:00 PM 17.6 °F 6.4 °F 15.8 °F 93% 29.74 in 6.2 mi North 9.2 mph - N/A Snow Light Snow
6:30 PM 15.8 °F 6.1 °F 15.8 °F 100% 29.74 in 6.2 mi North 6.9 mph - N/A Snow Light Snow
7:00 PM 15.8 °F 6.1 °F 15.8 °F 100% 29.77 in 6.2 mi North 6.9 mph - N/A   Mostly Cloudy
7:30 PM 15.8 °F 8.6 °F 15.8 °F 100% 29.77 in 6.2 mi North 4.6 mph - N/A   Mostly Cloudy
8:00 PM 17.6 °F 8.2 °F 15.8 °F 93% 29.80 in - North 6.9 mph - N/A Snow Snow Grains
9:00 PM 17.6 °F 10.7 °F 15.8 °F 93% 29.80 in - North 4.6 mph - N/A Snow Light Snow Showers
10:00 PM 17.6 °F 10.7 °F 15.8 °F 93% 29.80 in 1.7 mi NNE 4.6 mph - N/A Snow Light Snow
11:00 PM 17.6 °F 8.2 °F 15.8 °F 93% 29.83 in 0.9 mi ENE 6.9 mph - N/A Snow Light Snow